Wind_Speed
25 24 23 21 21 20 20 19 20 19 18 15 13 11 8 7 6 6 7 7 8 9 10 12 13 13 14 15 16 17 17 18 19 20 21 22 23 24 24 25 25 26 26 26 27 27 27 27 26 26 27 26 26 26 26 25 25 25 26 26 26 27 27 28 29 30 30 30 31
25 24 23 21 21 20 20 20 20 20 19 16 14 11 8 6 6 6 7 9 10 11 12 14 14 15 16 16 17 17 18 20 21 22 23 24 25 26 26 27 27 27 27 27 27 27 27 27 26 26 26 26 26 26 26 26 25 25 26 26 26 27 27 28 28 29 29 30 30
24 23 22 21 20 19 19 18 18 16 13 11 10 9 7 7 7 8 9 11 12 13 14 15 15 15 16 17 18 19 21 23 24 24 25 26 27 27 27 27 27 27 27 27 27 27 26 26 26 26 26 26 26 26 26 26 25 25 26 26 26 26 27 27 27 27 28 28 28
23 22 21 19 18 16 15 14 12 9 7 7 7 7 7 7 8 10 11 13 14 15 15 15 15 16 17 19 21 23 24 25 25 26 26 27 27 27 26 27 27 27 27 27 27 27 27 27 27 27 27 27 26 26 26 26 25 25 25 26 26 26 27 27 27 27 27 27 27
22 20 19 17 14 13 12 10 8 7 7 8 7 7 7 8 10 11 12 13 14 14 14 15 16 17 19 22 24 25 25 25 25 26 26 26 27 27 27 27 27 27 27 27 28 28 28 28 28 27 27 27 27 27 26 26 26 26 26 26 26 26 26 27 27 27 27 27 27
19 18 16 15 14 12 11 10 10 9 10 10 11 10 10 10 11 12 13 14 15 15 16 17 18 21 23 25 25 25 24 25 25 25 26 26 27 27 27 27 27 28 28 28 28 28 28 27 27 27 27 27 27 27 27 26 26 27 27 27 27 27 26 27 27 27 27 27 28
16 14 13 12 12 12 11 10 10 10 10 10 11 11 11 13 14 14 14 15 16 17 17 18 20 22 24 25 25 25 25 25 26 26 27 27 28 28 28 28 28 28 28 28 27 27 27 27 26 27 27 26 26 26 26 26 26 27 27 28 28 27 27 27 27 27 27 28 28
11 11 11 10 10 9 9 9 8 8 8 8 10 12 14 15 15 15 15 16 16 17 18 20 22 24 25 25 25 26 27 27 27 27 28 28 28 28 28 29 28 28 28 27 27 27 27 26 26 26 26 26 26 26 26 26 27 27 28 29 29 29 29 28 28 28 29 29 29
8 8 9 9 8 8 9 10 9 9 9 11 13 14 15 15 14 15 16 16 17 18 19 21 23 24 25 24 25 26 27 27 28 28 28 28 28 28 28 27 27 27 27 26 26 26 26 26 26 26 26 26 27 27 27 27 28 29 29 30 30 30 30 30 30 30 30 31 31
8 8 8 8 7 8 8 9 9 10 11 13 13 13 13 13 14 14 15 16 17 17 18 20 21 22 23 23 24 25 25 26 26 26 26 26 26 26 26 26 26 26 26 26 26 26 26 26 27 27 27 27 28 29 29 29 30 30 31 31 32 32 32 32 32 32 33 33 33
10 9 8 8 7 8 8 8 9 10 11 12 12 12 12 13 14 14 15 16 17 18 19 19 20 21 21 22 23 23 24 24 25 25 25 26 26 26 26 27 27 27 27 27 27 27 27 27 28 28 29 29 30 30 31 31 32 32 33 33 33 33 34 34 34 34 34 35 35
11 11 10 10 9 9 9 10 11 11 12 12 12 12 13 13 14 15 16 17 18 19 20 20 20 21 22 22 23 23 24 24 25 25 26 26 27 27 27 27 28 28 28 28 28 28 28 28 29 30 30 31 31 31 32 32 32 33 33 34 34 35 35 35 36 36 35 36 36
13 13 12 10 10 10 12 12 12 12 12 12 12 13 14 14 15 16 17 18 18 19 19 20 20 21 22 23 23 24 24 25 25 26 26 27 27 27 28 28 28 28 29 29 29 29 29 29 30 31 31 32 32 32 32 32 33 33 34 34 35 35 35 36 36 36 36 36 36
13 12 12 12 12 13 14 13 12 12 12 12 13 14 14 15 16 16 17 17 18 19 19 20 21 22 22 23 24 24 25 25 26 26 27 27 28 28 28 28 29 29 29 29 29 29 30 30 31 31 32 32 33 33 33 33 33 34 34 34 35 35 35 36 36 36 36 36 37
11 12 13 15 15 14 13 12 11 12 12 12 13 14 15 15 16 16 17 17 18 19 20 21 22 23 23 24 24 25 25 26 26 27 27 27 28 28 28 29 29 29 29 29 29 30 30 30 31 32 32 33 33 33 34 34 34 34 34 35 35 36 36 36 36 36 36 36 36
13 14 15 15 14 13 12 11 11 12 12 13 14 14 15 15 16 16 17 18 19 20 21 22 22 23 24 25 25 25 26 26 26 26 27 27 28 28 28 28 29 29 29 30 30 30 31 31 31 32 32 33 33 33 34 34 34 35 35 35 36 36 36 36 36 36 36 36 37
14 14 14 13 12 12 11 11 11 12 12 13 14 14 15 15 16 17 18 19 20 21 22 23 24 25 25 26 26 26 26 26 26 27 27 27 28 28 28 29 29 29 30 30 30 31 31 31 31 32 32 33 33 34 34 34 35 35 36 36 36 36 36 37 37 37 37 37 37
12 12 11 10 11 11 11 11 12 12 13 14 14 15 15 16 17 18 19 20 21 22 23 25 25 26 26 26 26 26 26 27 27 27 28 28 29 29 29 29 30 30 30 30 31 31 31 32 32 32 32 33 33 34 34 35 35 35 36 36 36 37 37 37 37 38 38 38 39
9 9 9 9 10 11 11 12 12 13 13 14 15 15 16 17 18 19 20 21 22 23 24 25 26 26 26 27 27 27 28 28 28 29 29 29 29 30 30 30 30 30 30 30 31 31 31 32 32 32 32 32 33 33 34 34 35 35 36 36 37 37 38 38 38 37 37 38 38
8 8 9 10 10 11 11 12 12 13 14 15 16 17 18 19 20 21 21 22 22 23 24 25 26 27 27 27 28 28 29 29 29 30 30 30 30 30 30 30 30 30 30 31 31 31 31 31 31 31 32 32 33 33 34 35 35 36 36 36 36 36 36 36 36 36 36 36 36
8 8 9 9 10 10 11 12 12 14 15 17 18 19 20 21 21 22 22 23 23 24 25 26 26 27 27 28 29 29 30 30 30 31 31 31 31 31 31 31 31 31 30 31 31 31 31 31 31 31 32 32 33 33 34 34 35 35 35 34 35 35 35 35 36 37 36 36 37
8 9 9 9 10 10 11 12 14 15 17 19 19 20 20 21 21 22 22 23 24 24 25 26 26 27 28 29 30 31 31 32 32 32 32 32 32 32 32 31 31 30 30 30 30 30 30 30 31 31 31 32 32 33 32 32 33 34 35 35 36 37 37 37 38 38 38 38 39
8 9 9 9 10 11 12 14 15 17 18 18 19 19 20 21 21 22 22 23 24 25 26 27 28 29 31 31 32 32 33 33 33 33 33 32 32 32 31 30 30 30 30 29 30 30 30 30 30 30 30 31 31 31 31 32 34 35 36 36 37 37 38 37 37 37 37 37 38
9 9 9 10 11 12 13 15 17 17 18 18 19 19 20 21 21 22 22 23 24 26 28 29 31 32 32 33 33 33 33 33 33 33 32 32 31 31 30 29 29 29 29 29 29 29 29 29 30 30 30 31 30 31 32 33 34 35 36 36 36 36 36 35 35 35 35 35 35
9 10 10 11 12 13 15 16 17 18 18 19 19 20 20 20 21 22 23 24 26 28 30 31 32 33 33 33 33 33 33 33 32 32 32 31 30 30 29 28 28 28 29 29 29 29 29 31 31 32 33 33 33 34 35 35 36 36 36 36 35 35 35 35 35 35 35 35 35
10 10 11 12 14 15 16 17 18 19 19 19 20 20 20 20 21 22 24 26 28 30 31 32 33 34 34 33 33 33 32 32 31 30 30 30 30 29 29 28 28 28 29 29 29 29 30 31 33 34 36 37 37 37 38 37 37 36 36 35 35 35 35 35 35 35 35 35 35
11 11 13 15 16 17 17 18 19 19 19 19 20 20 21 21 22 24 26 28 30 31 32 33 33 33 32 32 31 30 30 29 29 28 28 29 29 30 29 29 29 29 29 29 29 29 31 32 34 35 36 37 37 38 38 37 36 35 35 34 34 34 35 35 36 35 35 35 35
13 14 16 17 17 17 18 19 19 19 19 19 20 21 23 24 26 28 29 30 31 32 32 32 31 30 29 28 27 27 28 28 28 28 28 29 29 30 30 29 29 29 29 29 30 31 32 34 35 37 38 39 39 39 38 37 35 34 34 34 34 34 34 34 34 34 34 34 34
15 16 16 17 18 18 19 19 19 19 20 20 22 24 26 28 29 30 30 31 31 31 30 29 28 28 27 27 27 28 28 29 29 29 29 29 29 29 29 30 30 30 29 29 31 33 35 37 38 39 40 39 37 35 34 33 33 33 34 34 34 33 33 33 33 33 33 33 34
15 15 16 16 17 18 19 19 19 20 21 23 25 27 28 30 30 31 31 31 30 29 28 28 27 27 27 28 28 29 29 28 28 28 28 29 29 29 29 29 30 30 30 31 33 36 38 39 39 38 36 33 31 30 30 31 32 33 33 34 34 33 33 33 33 34 34 34 34
14 14 14 15 16 18 18 19 20 22 24 26 28 29 30 31 31 31 31 30 30 29 29 28 28 28 28 28 28 28 28 28 28 28 28 28 29 29 29 30 30 30 31 34 36 38 39 38 35 33 30 29 28 28 29 30 31 32 33 34 34 34 34 34 34 34 35 35 35
13 13 14 15 16 18 19 20 22 24 26 28 30 31 31 32 31 31 31 31 30 29 28 28 27 27 27 28 28 28 28 28 28 28 28 28 28 29 29 30 31 32 34 36 37 37 35 33 31 29 28 27 27 27 28 30 31 32 33 34 34 34 34 34 34 34 34 34 35
12 13 14 15 17 19 21 23 25 27 29 30 31 31 32 32 32 32 32 31 29 28 27 26 26 27 27 28 28 28 28 29 29 29 29 28 29 29 30 31 33 35 37 37 36 34 31 29 28 27 27 26 26 27 28 30 31 32 32 33 32 32 32 32 33 33 34 34 34
13 14 15 16 18 21 24 26 28 29 30 31 31 32 32 32 32 32 31 29 27 26 26 26 26 27 27 28 28 28 29 29 30 29 29 29 29 29 31 33 35 37 37 35 32 30 28 27 26 26 25 25 25 26 28 29 29 30 31 31 31 31 31 32 32 33 33 34 34
11 13 15 18 21 24 26 28 29 30 30 31 31 32 32 32 31 30 29 27 26 26 26 26 27 27 27 28 28 28 29 29 30 30 29 29 29 31 33 35 36 36 34 31 29 27 26 26 25 24 23 23 24 25 27 28 29 29 30 30 31 31 31 32 32 33 33 33 34
11 13 16 21 24 26 27 28 29 30 31 31 32 32 32 31 30 28 27 26 26 26 26 27 27 28 28 28 28 28 29 29 29 29 30 30 31 33 34 36 35 33 31 28 27 25 25 24 22 21 21 22 23 25 26 28 29 30 30 31 32 32 32 32 32 32 32 33 33
12 15 18 21 24 26 27 28 29 30 31 31 31 31 30 29 28 26 26 25 25 26 27 28 28 28 28 28 29 29 29 29 29 30 31 32 33 34 35 35 33 30 28 26 25 24 23 22 20 19 20 22 24 26 27 28 30 30 31 32 32 31 31 31 31 31 31 30 31
15 17 20 22 24 26 28 29 30 30 30 30 30 29 28 27 26 26 25 25 26 26 27 28 28 29 29 29 29 29 29 29 30 30 32 33 34 34 33 32 31 29 26 25 24 23 22 21 20 19 20 23 25 26 28 29 30 31 32 32 31 31 30 30 30 30 30 30 30
19 21 23 24 26 27 28 29 29 29 29 29 29 28 27 27 26 26 26 26 26 27 27 28 29 29 29 29 29 29 30 30 31 32 33 34 33 32 31 30 29 28 26 24 23 23 22 21 21 21 22 24 25 27 28 29 30 31 31 31 30 30 29 29 30 30 31 31 31
22 24 25 26 27 28 28 28 28 28 28 28 27 27 27 26 26 26 27 26 26 27 27 28 29 29 29 29 29 29 30 32 33 34 34 33 32 30 28 28 28 27 26 24 24 23 23 23 23 23 23 24 25 26 27 28 29 30 29 28 28 28 29 29 29 30 30 30 31
23 25 26 27 27 27 27 27 27 27 27 27 27 27 27 26 26 26 26 26 27 27 28 29 29 29 29 29 28 29 31 33 34 34 33 31 29 28 27 26 27 26 26 25 24 24 24 25 24 24 24 24 24 24 25 26 26 27 27 27 28 28 29 30 30 29 29 29 30
Wind_Direction
240 240 242 245 249 252 253 251 248 244 239 232 232 234 237 242 246 255 264 271 276 280 283 284 285 285 285 285 285 286 286 287 288 288 289 290 290 290 290 289 288 287 286 285 284 284 283 282 281 280 279 278 277 276 275 274 274 273 273 273 272 272 273 272 272 272 272 271 271
240 242 244 247 251 253 251 247 246 246 243 241 238 237 237 243 254 266 274 279 282 285 287 287 287 286 286 286 286 287 287 288 289 289 290 290 290 290 289 289 288 287 286 285 284 283 282 281 279 278 277 276 275 275 274 274 273 273 272 272 272 272 272 272 271 271 271 271 270
241 243 246 250 252 250 246 244 245 247 247 243 238 235 238 252 266 276 282 285 288 289 290 289 289 288 287 287 287 288 289 289 290 290 290 291 291 290 290 289 288 287 285 284 282 281 280 279 278 276 275 275 274 273 273 273 273 273 272 272 272 272 271 271 270 270 270 269 268
243 246 249 250 249 245 242 242 243 239 230 224 223 232 248 266 278 284 288 291 293 293 292 291 291 290 289 289 290 290 290 290 290 290 290 290 290 289 289 288 287 286 284 283 281 280 278 277 276 275 274 273 273 272 272 272 272 272 271 271 271 271 270 270 269 269 268 267 266
244 246 248 248 244 240 238 232 223 214 212 218 228 245 265 279 286 290 293 294 294 293 291 291 291 290 290 291 291 291 290 290 290 290 289 289 289 289 288 288 287 286 284 283 281 280 278 277 276 274 273 272 272 271 271 271 271 270 270 270 270 269 269 268 268 268 267 266 265
244 244 244 242 236 228 221 214 214 218 228 242 256 268 279 285 288 290 290 290 290 290 290 290 290 291 292 291 290 290 289 289 289 288 288 288 288 288 288 287 286 285 284 283 282 280 279 277 275 274 273 272 271 271 270 270 269 269 269 268 268 268 267 267 267 267 266 265 265
242 240 237 231 222 217 217 223 232 242 254 266 276 283 287 288 288 288 287 287 288 289 290 290 290 291 291 290 289 289 289 289 289 288 288 288 288 288 287 287 286 285 283 282 281 280 278 276 274 273 272 271 271 270 270 269 268 268 267 268 268 267 267 267 267 266 266 265 264
234 231 230 226 222 222 226 236 246 258 270 279 285 287 288 289 288 287 287 287 287 289 290 291 291 290 289 289 289 289 290 290 290 290 289 289 288 288 287 286 285 283 282 281 279 278 276 275 273 272 271 271 270 270 269 268 267 267 266 266 267 267 267 266 266 266 265 265 264
211 215 225 229 232 237 244 254 262 271 279 284 286 288 289 289 287 287 287 288 287 288 290 290 290 290 290 289 289 290 290 290 290 291 290 288 287 286 285 284 282 281 280 279 278 277 276 275 273 272 271 271 270 270 270 269 268 267 267 267 267 267 267 266 265 265 265 264 264
208 209 217 223 232 243 254 265 274 281 285 287 288 289 290 288 287 287 287 288 288 288 288 288 288 288 288 287 287 287 288 288 288 287 286 285 284 283 283 282 281 281 280 279 279 278 277 276 275 273 272 272 271 271 271 270 269 268 268 268 268 267 266 266 265 265 265 264 264
212 212 216 223 236 248 260 271 279 283 285 287 287 288 288 287 287 288 289 289 289 287 286 285 284 284 284 284 284 285 285 285 284 284 284 284 284 284 283 282 282 281 281 280 280 279 278 276 275 274 273 272 272 271 271 270 269 268 268 267 267 266 266 265 265 264 264 264 264
217 222 228 236 247 258 267 274 278 282 284 284 284 285 286 287 287 288 289 288 287 286 284 282 282 283 284 284 284 285 285 284 284 284 284 284 284 283 283 282 281 281 280 280 279 278 277 276 275 274 273 272 272 271 270 270 269 268 267 266 266 266 265 264 264 264 264 264 264
225 229 235 243 255 265 271 275 278 281 282 283 283 285 287 287 288 288 287 286 284 282 282 282 283 283 284 285 286 286 286 286 285 285 284 284 283 283 282 282 281 281 280 280 279 277 276 275 274 273 273 272 271 270 269 269 268 268 267 266 266 265 264 264 263 263 263 263 263
225 231 240 252 262 269 273 275 278 280 281 282 284 286 287 288 287 286 284 282 281 280 282 283 284 285 286 287 287 287 287 287 286 286 285 284 284 283 282 282 281 281 280 279 278 277 275 274 273 273 272 272 271 270 269 268 268 267 267 266 265 265 264 264 264 264 263 263 262
232 245 257 266 271 274 275 276 277 279 280 281 285 286 287 286 285 283 281 279 280 281 283 285 286 288 289 289 289 289 288 288 287 286 285 284 284 283 282 282 281 280 280 279 278 276 275 273 273 272 271 271 270 270 269 268 267 267 266 266 266 265 265 265 265 264 264 263 262
256 266 272 277 278 278 277 276 277 278 279 281 284 285 284 283 282 281 280 280 282 284 286 287 288 290 291 291 291 290 289 288 287 286 285 284 284 283 282 282 281 280 280 279 277 276 274 273 272 271 271 270 270 269 269 268 268 267 267 266 266 266 266 266 265 265 264 263 262
272 275 277 278 277 276 274 274 274 276 278 281 282 282 282 281 281 281 282 283 285 286 288 289 291 291 292 292 292 291 290 288 287 286 285 284 284 283 282 281 281 280 280 279 277 276 275 273 272 271 270 270 269 269 269 269 268 268 268 267 267 266 266 265 265 264 264 263 262
277 276 274 272 272 272 271 270 271 273 276 278 280 281 281 281 282 284 285 286 287 288 289 291 292 292 292 292 291 290 289 288 287 286 285 284 284 283 282 281 281 280 279 278 277 276 275 274 273 272 271 270 270 269 269 269 269 269 268 268 267 267 266 265 265 264 263 263 262
274 270 268 266 266 268 269 269 270 272 275 277 279 281 282 283 285 286 288 288 289 290 291 292 292 292 292 292 291 290 290 289 287 286 285 285 284 283 282 281 280 280 279 277 276 275 275 274 273 272 271 271 271 271 270 270 269 269 269 268 267 267 266 266 265 264 263 263 262
266 264 263 263 263 265 267 268 271 273 276 279 281 283 285 287 289 290 290 290 291 292 292 292 292 292 292 292 291 291 290 289 288 287 286 285 284 283 281 281 280 279 279 277 276 275 275 274 274 274 274 273 273 273 272 271 271 270 270 269 268 267 266 266 265 264 263 262 262
264 262 261 261 262 264 267 270 272 275 278 281 284 287 289 291 292 292 293 293 294 294 293 293 293 292 292 292 292 291 291 291 290 288 287 286 285 284 283 282 281 280 279 278 277 276 276 276 276 276 275 275 274 274 274 273 272 271 270 269 268 267 266 265 264 264 263 263 262
262 261 260 260 262 265 268 272 275 278 282 285 289 291 293 294 294 294 295 295 294 294 293 293 293 293 293 294 294 294 294 293 292 291 290 288 287 287 286 284 283 281 280 279 278 279 279 279 279 278 277 276 275 275 275 273 271 270 269 269 268 267 267 266 265 264 264 263 262
261 259 258 259 262 266 271 275 279 283 286 290 292 294 294 295 295 295 294 294 293 293 293 293 294 295 296 297 297 297 296 296 295 293 292 291 289 288 287 285 283 283 282 280 280 281 281 281 280 279 278 277 276 275 273 272 271 270 270 271 270 269 269 268 267 266 266 265 264
257 255 255 258 264 269 274 278 283 287 290 292 294 295 295 295 295 295 294 294 293 294 295 296 298 300 300 301 300 299 298 297 296 295 294 292 290 289 287 285 283 283 283 282 281 280 280 279 279 278 277 276 276 274 273 273 273 273 273 273 273 273 272 271 270 269 268 267 266
252 252 255 261 267 273 278 283 287 290 293 295 297 297 297 297 296 296 295 295 295 297 298 300 302 303 303 303 302 301 300 298 297 295 294 292 290 289 286 284 282 282 283 283 281 279 278 277 276 276 276 276 276 276 276 276 276 277 277 277 276 276 276 275 274 273 271 269 268
249 253 258 265 272 278 283 287 291 295 297 299 300 300 299 297 297 297 297 298 299 300 302 304 305 305 305 304 303 302 300 299 296 294 292 290 289 287 285 284 283 283 284 283 282 280 279 277 275 275 275 276 277 278 279 279 280 280 280 279 279 278 277 276 276 275 273 272 270
251 257 265 273 279 284 287 291 295 299 300 301 301 300 300 300 300 300 301 302 304 305 306 307 307 306 306 303 301 299 297 295 292 290 288 287 287 286 285 285 285 285 285 284 283 281 280 278 277 277 277 278 279 280 281 281 281 281 280 280 279 278 277 276 276 275 274 273 272
259 267 275 280 284 288 292 296 299 301 301 301 301 302 302 303 304 305 306 307 308 308 308 308 306 305 302 298 295 294 292 291 289 288 287 287 286 286 285 285 286 286 286 285 283 282 280 279 278 279 279 280 280 281 282 282 282 282 281 280 279 278 277 276 276 275 274 273 272
268 275 280 284 287 292 296 300 302 303 302 302 304 305 306 308 308 309 309 309 309 308 307 305 303 300 297 294 292 292 291 290 289 289 288 288 287 286 286 287 287 287 287 285 283 281 280 280 281 282 283 283 284 284 284 284 283 283 282 281 280 278 277 276 275 274 273 273 272
272 277 281 285 290 295 299 302 303 304 304 306 307 309 310 311 311 311 310 309 308 306 304 302 300 297 295 294 293 292 292 291 290 290 289 289 288 288 287 288 288 288 287 285 282 282 282 284 285 287 288 288 288 287 286 286 285 284 283 282 281 279 278 277 276 275 274 273 273
273 277 281 286 292 297 301 304 305 306 307 309 311 312 312 312 311 311 310 309 307 306 304 302 299 297 295 294 293 293 292 292 292 291 290 290 289 289 289 289 289 288 286 285 285 286 288 291 292 293 294 293 292 291 290 289 288 286 285 284 283 282 280 280 278 277 276 274 274
273 277 283 289 295 299 303 305 307 309 310 312 312 312 312 312 312 311 310 309 308 306 304 301 299 297 296 295 294 294 293 293 293 292 291 290 290 291 291 290 289 288 287 288 291 293 296 298 299 298 298 297 296 295 294 292 291 289 287 286 286 285 284 283 282 280 278 276 275
275 282 288 293 297 301 305 308 310 312 313 313 313 313 312 312 312 312 311 310 308 305 302 299 298 297 296 296 296 296 295 294 293 293 292 292 292 292 292 290 289 289 291 295 298 301 302 303 302 301 300 299 298 297 295 294 292 291 290 289 289 289 288 287 286 284 282 280 278
281 287 292 296 300 305 309 311 313 313 313 313 312 312 313 313 313 312 311 309 306 303 299 298 297 297 297 296 296 296 296 295 295 294 294 294 294 293 292 291 292 295 299 302 305 306 306 305 304 302 301 300 299 297 296 295 294 294 293 293 293 293 293 292 290 288 285 283 281
286 290 295 299 305 309 312 313 313 313 313 312 312 313 313 313 313 311 309 307 303 300 299 298 298 297 297 297 297 297 296 296 296 295 295 295 294 293 293 294 297 301 305 307 308 308 307 306 305 304 303 302 301 300 298 298 297 297 297 297 297 296 295 294 292 289 287 285 282
289 293 298 304 308 311 312 312 312 312 312 313 313 314 314 314 312 310 307 304 302 300 300 300 300 300 299 299 299 298 297 297 296 296 296 295 295 295 296 299 303 307 309 311 311 310 309 308 307 307 306 305 304 302 301 300 299 299 299 298 298 297 295 293 292 290 287 284 281
294 298 303 307 309 311 311 311 311 312 312 313 314 314 313 312 309 307 305 303 302 301 301 302 301 301 301 300 300 299 298 298 297 297 296 296 296 298 300 304 307 311 313 314 314 313 313 312 312 311 310 307 305 303 302 301 300 299 299 299 297 295 294 292 292 290 287 283 280
298 302 305 307 309 309 310 310 311 312 313 314 313 313 311 310 307 305 304 304 303 302 302 302 302 302 302 301 301 300 299 298 298 297 297 298 300 303 305 307 310 313 315 317 316 316 316 316 316 314 312 308 306 304 302 302 301 301 300 299 296 294 293 292 292 291 288 286 283
301 306 308 309 309 310 310 311 312 312 313 313 312 311 310 309 306 305 305 304 304 303 302 302 302 302 302 302 301 301 300 299 299 299 300 302 305 308 309 310 311 313 316 318 319 318 318 318 318 316 313 309 306 304 303 303 302 302 300 298 296 295 293 293 292 291 290 288 286
308 310 311 311 311 311 311 312 312 312 312 312 311 310 309 308 306 306 306 305 304 304 303 303 303 303 303 303 302 301 300 300 301 302 304 307 310 312 313 312 312 313 316 318 319 319 319 318 317 316 313 310 307 306 305 304 303 302 300 298 297 296 296 295 294 292 291 290 288
313 314 313 312 312 311 311 311 311 312 311 311 310 310 309 308 307 307 306 306 305 304 304 304 304 304 304 303 302 301 301 302 304 307 310 312 314 314 314 312 311 311 313 315 316 317 317 317 317 316 314 312 309 307 306 304 303 302 301 300 299 299 299 298 297 295 293 291 290
Height
1475 1476 1476 1477 1478 1479 1480 1480 1480 1480 1481 1482 1482 1483 1483 1483 1483 1482 1483 1483 1483 1483 1483 1483 1483 1482 1482 1482 1482 1482 1482 1481 1481 1480 1480 1480 1479 1478 1477 1477 1476 1475 1475 1474 1473 1472 1471 1471 1470 1469 1468 1467 1466 1465 1465 1465 1464 1463 1463 1462 1461 1461 1460 1460 1459 1458 1458 1458 1457
1474 1474 1475 1476 1477 1477 1478 1478 1478 1479 1480 1480 1481 1481 1481 1481 1481 1481 1481 1481 1481 1481 1481 1481 1481 1480 1480 1480 1480 1480 1480 1480 1479 1478 1478 1477 1476 1476 1475 1474 1473 1473 1472 1471 1470 1470 1469 1468 1467 1466 1465 1464 1464 1463 1462 1462 1461 1461 1460 1459 1459 1458 1458 1457 1456 1455 1455 1455 1455
1472 1472 1473 1475 1475 1476 1476 1476 1477 1478 1479 1479 1480 1480 1480 1480 1480 1480 1480 1480 1480 1480 1479 1479 1479 1479 1479 1478 1478 1478 1478 1477 1477 1476 1475 1474 1474 1473 1472 1472 1471 1470 1470 1469 1468 1467 1466 1466 1465 1464 1463 1462 1461 1460 1460 1459 1459 1459 1458 1457 1456 1456 1455 1454 1454 1453 1453 1452 1452
1470 1471 1472 1473 1474 1475 1475 1475 1476 1477 1478 1478 1478 1478 1478 1478 1478 1478 1478 1478 1478 1478 1478 1477 1477 1477 1476 1476 1476 1475 1475 1475 1474 1473 1472 1472 1471 1470 1470 1469 1468 1468 1467 1466 1465 1465 1464 1463 1462 1461 1460 1459 1458 1458 1457 1456 1456 1456 1455 1455 1454 1454 1453 1452 1451 1451 1451 1450 1450
1469 1470 1471 1472 1473 1473 1474 1475 1476 1476 1477 1477 1477 1477 1477 1477 1477 1477 1476 1476 1476 1476 1476 1476 1476 1475 1475 1474 1474 1473 1473 1472 1472 1471 1470 1469 1468 1468 1467 1466 1465 1465 1464 1463 1462 1462 1461 1460 1460 1458 1457 1456 1456 1455 1455 1454 1454 1453 1452 1452 1451 1451 1450 1450 1449 1449 1448 1448 1447
1468 1469 1470 1471 1472 1473 1473 1474 1474 1475 1475 1475 1475 1475 1475 1475 1475 1475 1475 1475 1475 1475 1475 1474 1474 1473 1473 1472 1472 1471 1471 1470 1469 1469 1468 1466 1466 1465 1464 1464 1463 1462 1461 1460 1460 1459 1458 1457 1456 1455 1454 1454 1453 1452 1452 1452 1451 1450 1450 1449 1449 1448 1448 1447 1446 1446 1446 1445 1445
1468 1468 1469 1470 1470 1471 1472 1472 1472 1473 1473 1473 1473 1473 1473 1473 1474 1474 1473 1473 1473 1473 1473 1472 1472 1471 1471 1470 1470 1469 1469 1468 1467 1466 1465 1464 1463 1462 1461 1461 1460 1459 1459 1458 1457 1456 1455 1455 1454 1453 1452 1451 1450 1449 1449 1449 1448 1448 1447 1446 1446 1445 1445 1444 1444 1444 1443 1442 1442
1467 1468 1469 1469 1470 1470 1470 1471 1471 1471 1471 1471 1471 1471 1471 1471 1472 1472 1471 1471 1471 1471 1470 1470 1470 1469 1469 1468 1467 1466 1466 1465 1464 1463 1462 1461 1460 1460 1459 1458 1457 1456 1455 1455 1454 1454 1453 1452 1451 1450 1449 1449 1448 1447 1446 1446 1445 1445 1444 1443 1443 1442 1442 1441 1441 1440 1440 1440 1439
1467 1467 1468 1469 1469 1469 1470 1470 1470 1470 1470 1470 1470 1470 1470 1470 1470 1470 1470 1469 1469 1469 1468 1468 1467 1467 1466 1465 1465 1464 1463 1462 1461 1460 1459 1458 1457 1456 1456 1455 1454 1453 1453 1452 1452 1451 1450 1450 1449 1448 1447 1446 1445 1444 1444 1443 1443 1442 1441 1440 1440 1439 1439 1438 1438 1437 1437 1436 1436
1466 1467 1467 1468 1468 1469 1469 1469 1469 1469 1469 1469 1469 1469 1469 1469 1468 1468 1468 1467 1467 1467 1466 1466 1465 1465 1464 1463 1462 1462 1461 1460 1459 1458 1457 1456 1455 1455 1454 1453 1452 1451 1451 1450 1450 1449 1448 1447 1446 1445 1444 1444 1443 1442 1441 1441 1440 1439 1439 1438 1437 1436 1435 1435 1435 1435 1434 1434 1433
1466 1466 1467 1467 1468 1468 1468 1468 1467 1467 1467 1467 1467 1467 1467 1467 1467 1467 1466 1466 1466 1465 1465 1464 1464 1463 1462 1461 1461 1460 1459 1458 1457 1456 1455 1454 1454 1453 1452 1451 1450 1450 1449 1448 1447 1447 1446 1445 1444 1442 1441 1441 1440 1439 1438 1438 1437 1436 1435 1435 1434 1434 1433 1432 1432 1432 1431 1430 1430
1464 1465 1465 1466 1466 1466 1466 1466 1466 1465 1465 1466 1466 1466 1466 1465 1465 1465 1465 1465 1464 1464 1463 1463 1462 1462 1461 1460 1459 1458 1457 1456 1455 1454 1453 1452 1451 1450 1450 1449 1448 1447 1446 1445 1445 1444 1443 1442 1441 1440 1439 1438 1437 1436 1435 1435 1434 1433 1432 1432 1431 1431 1430 1429 1429 1429 1428 1428 1427
1463 1463 1464 1464 1464 1464 1464 1464 1464 1464 1464 1464 1464 1464 1464 1464 1464 1463 1463 1463 1462 1462 1461 1461 1460 1460 1459 1458 1457 1456 1455 1454 1453 1452 1451 1450 1449 1448 1447 1446 1445 1444 1443 1442 1442 1441 1440 1439 1438 1437 1436 1435 1434 1433 1432 1432 1431 1430 1429 1429 1428 1427 1426 1426 1426 1425 1425 1425 1425
1460 1461 1462 1462 1462 1462 1462 1462 1462 1462 1462 1462 1462 1462 1462 1462 1462 1461 1461 1461 1460 1460 1460 1459 1458 1457 1456 1455 1455 1454 1453 1452 1450 1450 1448 1447 1446 1445 1444 1443 1442 1441 1440 1439 1438 1438 1437 1435 1435 1434 1433 1432 1431 1430 1429 1429 1428 1427 1426 1425 1425 1424 1423 1423 1423 1422 1422 1422 1421
1459 1459 1460 1460 1460 1460 1461 1461 1461 1461 1461 1460 1460 1460 1460 1460 1460 1460 1460 1459 1459 1458 1457 1456 1456 1455 1454 1453 1452 1451 1450 1449 1448 1447 1445 1444 1443 1442 1441 1440 1439 1438 1437 1436 1435 1435 1434 1433 1432 1431 1430 1429 1428 1427 1426 1425 1425 1424 1423 1422 1421 1421 1420 1420 1419 1419 1419 1418 1418
1457 1458 1458 1459 1459 1459 1459 1459 1459 1459 1459 1459 1459 1459 1459 1459 1459 1458 1458 1457 1456 1456 1455 1454 1453 1452 1451 1450 1450 1448 1447 1446 1445 1444 1443 1441 1440 1440 1439 1438 1436 1435 1435 1434 1433 1432 1431 1430 1429 1428 1427 1426 1425 1424 1423 1422 1421 1420 1420 1419 1418 1417 1417 1416 1416 1416 1415 1415 1414
1456 1457 1457 1457 1458 1458 1458 1458 1458 1458 1458 1458 1458 1458 1458 1458 1457 1457 1456 1455 1454 1453 1452 1451 1451 1450 1449 1448 1447 1446 1445 1443 1442 1441 1440 1439 1438 1437 1436 1435 1434 1433 1432 1431 1430 1429 1428 1427 1426 1425 1424 1423 1422 1421 1420 1419 1418 1417 1416 1415 1415 1414 1413 1413 1413 1412 1412 1411 1410
1455 1456 1456 1456 1457 1457 1457 1457 1457 1457 1457 1457 1457 1457 1457 1456 1455 1455 1454 1453 1452 1451 1450 1449 1448 1447 1446 1445 1444 1443 1442 1440 1439 1438 1437 1436 1435 1434 1433 1432 1431 1430 1429 1428 1427 1426 1425 1424 1423 1422 1421 1420 1419 1418 1416 1416 1415 1414 1413 1412 1411 1410 1410 1409 1409 1408 1408 1407 1406
1455 1455 1455 1455 1456 1456 1456 1456 1456 1456 1456 1456 1456 1455 1455 1454 1454 1453 1452 1451 1450 1449 1448 1447 1446 1445 1444 1442 1441 1440 1439 1438 1436 1435 1434 1433 1432 1431 1430 1429 1428 1427 1426 1425 1424 1422 1421 1420 1419 1418 1417 1416 1415 1414 1413 1412 1411 1410 1409 1408 1407 1407 1406 1405 1405 1405 1404 1403 1403
1454 1455 1455 1455 1455 1455 1455 1455 1455 1455 1455 1455 1454 1454 1453 1452 1451 1450 1450 1449 1448 1447 1446 1445 1443 1442 1441 1440 1439 1437 1436 1435 1434 1432 1431 1430 1429 1428 1427 1426 1425 1424 1423 1421 1420 1419 1418 1417 1416 1415 1414 1413 1412 1411 1410 1409 1408 1406 1405 1405 1404 1403 1402 1401 1401 1400 1400 1399 1399
1453 1454 1454 1454 1454 1455 1455 1455 1454 1454 1454 1453 1452 1451 1450 1450 1449 1448 1447 1446 1445 1444 1443 1442 1441 1440 1438 1437 1436 1435 1433 1432 1431 1429 1428 1427 1426 1425 1424 1423 1421 1420 1419 1418 1417 1415 1415 1414 1413 1412 1411 1410 1409 1408 1406 1405 1404 1403 1402 1401 1400 1399 1398 1398 1397 1396 1396 1395 1395
1453 1453 1453 1453 1453 1453 1453 1453 1453 1452 1452 1451 1450 1449 1448 1447 1447 1446 1445 1444 1443 1442 1441 1440 1439 1437 1436 1435 1433 1432 1430 1429 1428 1426 1425 1424 1422 1421 1420 1419 1418 1417 1416 1415 1414 1413 1412 1411 1410 1409 1408 1407 1405 1404 1403 1402 1400 1399 1398 1397 1396 1395 1394 1393 1393 1392 1391 1391 1390
1452 1452 1452 1452 1452 1452 1452 1452 1451 1451 1450 1449 1448 1447 1446 1445 1445 1444 1443 1442 1441 1440 1438 1437 1436 1435 1433 1432 1430 1429 1427 1426 1424 1423 1422 1421 1419 1418 1417 1416 1415 1414 1413 1412 1411 1410 1409 1408 1407 1406 1405 1404 1402 1401 1400 1398 1397 1395 1394 1393 1392 1391 1390 1389 1389 1388 1387 1387 1386
1451 1451 1451 1451 1451 1451 1450 1450 1450 1449 1448 1447 1446 1446 1445 1444 1443 1442 1441 1440 1439 1437 1436 1434 1433 1431 1430 1429 1427 1426 1424 1423 1421 1420 1419 1418 1416 1415 1414 1414 1413 1411 1410 1409 1408 1407 1406 1405 1404 1403 1402 1400 1399 1398 1396 1395 1393 1392 1390 1389 1388 1387 1386 1385 1385 1384 1384 1383 1382
1450 1450 1450 1450 1450 1449 1449 1448 1448 1447 1446 1445 1445 1444 1443 1442 1441 1440 1439 1438 1436 1435 1433 1432 1430 1429 1427 1426 1424 1423 1421 1420 1419 1417 1416 1415 1414 1413 1412 1411 1410 1409 1407 1406 1405 1404 1403 1402 1400 1399 1398 1396 1395 1394 1392 1391 1389 1388 1387 1386 1385 1384 1383 1382 1381 1380 1380 1379 1379
1449 1449 1449 1449 1448 1448 1447 1447 1446 1445 1444 1444 1443 1442 1441 1440 1440 1438 1437 1435 1434 1432 1431 1429 1427 1426 1424 1423 1421 1420 1419 1417 1416 1415 1414 1412 1411 1410 1409 1408 1407 1406 1405 1403 1402 1401 1400 1399 1397 1396 1395 1393 1391 1390 1388 1387 1385 1385 1384 1382 1381 1380 1379 1378 1377 1377 1376 1376 1375
1448 1448 1447 1447 1447 1446 1445 1445 1444 1443 1443 1442 1441 1440 1440 1439 1438 1436 1435 1433 1431 1430 1428 1426 1425 1423 1422 1420 1419 1417 1416 1415 1414 1413 1412 1410 1409 1408 1407 1405 1405 1403 1402 1400 1400 1398 1397 1396 1394 1393 1391 1390 1388 1387 1385 1384 1382 1381 1380 1380 1378 1377 1376 1375 1374 1373 1373 1372 1372
1446 1446 1446 1445 1445 1444 1444 1443 1442 1442 1441 1440 1440 1439 1438 1436 1435 1434 1432 1430 1429 1427 1426 1424 1423 1421 1420 1419 1417 1416 1415 1413 1412 1411 1410 1408 1407 1405 1404 1403 1402 1400 1399 1398 1397 1395 1394 1392 1391 1390 1388 1387 1385 1384 1382 1381 1380 1378 1377 1376 1375 1375 1374 1372 1371 1371 1370 1369 1369
1445 1445 1444 1444 1443 1442 1442 1441 1441 1440 1440 1439 1438 1436 1435 1434 1433 1431 1430 1428 1427 1425 1424 1423 1421 1420 1419 1417 1415 1414 1413 1411 1410 1409 1407 1405 1404 1403 1401 1400 1399 1398 1396 1395 1394 1392 1390 1389 1387 1386 1385 1384 1382 1380 1379 1378 1376 1375 1374 1373 1372 1371 1370 1370 1369 1368 1367 1366 1365
1444 1443 1442 1442 1441 1441 1440 1440 1439 1438 1438 1437 1435 1434 1433 1432 1430 1429 1428 1426 1425 1424 1422 1421 1420 1418 1416 1415 1413 1412 1410 1409 1408 1406 1405 1403 1402 1400 1399 1398 1396 1395 1394 1392 1390 1389 1387 1385 1384 1382 1381 1380 1379 1377 1376 1375 1374 1372 1371 1370 1369 1368 1368 1367 1366 1365 1364 1363 1363
1442 1442 1441 1440 1440 1439 1439 1438 1437 1436 1435 1435 1433 1432 1431 1430 1428 1427 1426 1424 1423 1421 1420 1419 1417 1416 1414 1413 1411 1410 1408 1407 1405 1404 1403 1401 1400 1398 1396 1395 1394 1392 1390 1388 1386 1385 1383 1381 1380 1378 1377 1376 1375 1374 1373 1372 1370 1370 1368 1367 1366 1365 1365 1364 1363 1362 1361 1360 1360
1441 1440 1440 1439 1439 1438 1437 1436 1435 1435 1433 1432 1431 1430 1429 1427 1426 1425 1424 1422 1420 1419 1418 1416 1415 1413 1412 1410 1409 1408 1406 1405 1403 1402 1400 1399 1397 1395 1394 1392 1390 1388 1386 1385 1383 1381 1380 1378 1376 1375 1374 1373 1372 1371 1370 1369 1368 1366 1365 1364 1363 1362 1361 1361 1360 1359 1358 1357 1356
1439 1439 1438 1438 1437 1436 1435 1435 1434 1433 1431 1430 1429 1428 1426 1425 1424 1422 1421 1420 1418 1417 1416 1414 1413 1411 1410 1408 1407 1405 1404 1402 1400 1399 1397 1396 1394 1393 1391 1389 1386 1385 1382 1381 1379 1378 1376 1375 1373 1372 1371 1370 1370 1368 1367 1366 1365 1364 1362 1361 1360 1359 1358 1357 1356 1355 1354 1354 1353
1438 1437 1437 1436 1435 1435 1434 1433 1432 1430 1430 1428 1427 1426 1424 1423 1421 1420 1419 1418 1416 1415 1414 1412 1411 1409 1408 1406 1404 1403 1401 1399 1397 1396 1394 1393 1391 1390 1387 1385 1383 1381 1379 1378 1376 1375 1373 1372 1371 1370 1369 1368 1367 1366 1365 1363 1362 1361 1360 1358 1357 1356 1355 1354 1353 1352 1351 1350 1350
1437 1436 1435 1435 1434 1433 1432 1431 1430 1429 1427 1426 1425 1423 1422 1421 1420 1418 1417 1415 1415 1413 1411 1410 1409 1407 1405 1403 1402 1400 1398 1396 1395 1393 1392 1390 1388 1386 1384 1381 1380 1378 1376 1375 1373 1372 1371 1370 1368 1367 1366 1365 1365 1363 1362 1361 1360 1358 1357 1355 1354 1353 1352 1351 1350 1349 1348 1347 1346
1435 1435 1434 1433 1432 1431 1430 1429 1428 1427 1425 1424 1423 1421 1420 1419 1418 1416 1415 1414 1412 1411 1409 1408 1406 1405 1403 1401 1399 1398 1396 1394 1392 1390 1389 1387 1385 1383 1380 1378 1376 1375 1374 1372 1371 1370 1369 1367 1366 1365 1365 1363 1362 1361 1360 1358 1357 1355 1354 1353 1351 1350 1349 1348 1347 1346 1345 1344 1343
1434 1433 1432 1431 1430 1429 1428 1427 1426 1425 1423 1422 1420 1419 1418 1417 1416 1415 1413 1412 1410 1409 1407 1405 1404 1402 1400 1399 1397 1395 1393 1392 1390 1388 1386 1384 1382 1380 1378 1375 1374 1372 1371 1370 1369 1367 1366 1365 1364 1363 1362 1361 1360 1359 1357 1356 1355 1353 1351 1350 1349 1348 1346 1345 1344 1343 1342 1341 1340
1433 1432 1431 1430 1429 1428 1426 1425 1424 1423 1421 1420 1419 1418 1416 1415 1414 1413 1411 1410 1409 1406 1405 1403 1401 1400 1398 1396 1394 1392 1390 1389 1387 1385 1383 1381 1379 1377 1375 1373 1371 1370 1369 1368 1366 1365 1364 1363 1362 1361 1361 1360 1358 1357 1355 1354 1352 1350 1349 1347 1346 1345 1344 1343 1342 1340 1340 1338 1338
1431 1430 1429 1428 1427 1426 1425 1423 1422 1421 1420 1418 1417 1416 1415 1414 1412 1411 1410 1408 1406 1405 1403 1400 1399 1397 1395 1394 1392 1390 1388 1386 1385 1383 1380 1378 1376 1375 1373 1371 1369 1367 1366 1365 1364 1363 1362 1361 1360 1360 1359 1358 1356 1355 1353 1351 1350 1348 1347 1345 1344 1343 1341 1340 1339 1338 1336 1335 1335
1429 1429 1428 1426 1425 1424 1423 1421 1420 1419 1418 1417 1415 1414 1413 1412 1410 1409 1407 1406 1404 1403 1401 1399 1397 1395 1393 1391 1390 1387 1385 1383 1382 1380 1378 1376 1374 1372 1370 1369 1367 1365 1364 1363 1362 1361 1360 1360 1359 1358 1357 1355 1354 1353 1351 1350 1348 1346 1345 1344 1342 1340 1339 1338 1336 1335 1334 1332 1331
1428 1427 1426 1425 1424 1422 1421 1420 1419 1418 1416 1415 1414 1413 1411 1410 1408 1407 1405 1404 1402 1401 1399 1397 1395 1393 1391 1389 1387 1385 1383 1380 1379 1377 1375 1374 1372 1370 1369 1367 1366 1364 1363 1362 1361 1360 1359 1358 1357 1356 1355 1354 1352 1351 1350 1348 1346 1345 1343 1342 1340 1338 1336 1335 1333 1332 1331 1330 1328